Hourly Data Report for October 19, 2016

All times are specified in Local Standard Time (LST). Add 1 hour to adjust for Daylight Saving Time where and when it is observed.

BATHURST A
NEW BRUNSWICK

47°37'47.000" N
65°44'20.000" W
58.80 m
8100505
71574
ZBF

Download Data

Hourly Data (October 2016)
Hourly Data Report for October 19, 2016
Temp Definition
°C
Dew Point Temp Definition
°C
Rel Hum Definition
%
Wind Dir Definition
10's deg

Wind Spd Definition
km/h
Visibility Definition
km
Stn Press Definition
kPa
Hmdx Definition


Wind Chill Definition


Weather Definition


TIME
00:00 Legend Double Dagger 9.4 8.5 94 21 17 6.4 99.50     Rain Showers
01:00 Legend Double Dagger 11.3 10.4 94 20 17 11.3 99.41     LegendNANA
02:00 Legend Double Dagger 12.3 11.5 95 19 11 11.3 99.28     Mostly Cloudy
03:00 Legend Double Dagger 13.6 12.7 94 20 14 11.3 99.20     LegendNANA
04:00 Legend Double Dagger 14.0 13.1 94 23 8 11.3 99.24     LegendNANA
05:00 Legend Double Dagger 13.7 13.1 96 36 3 12.9 99.33     Mostly Cloudy
06:00 Legend Double Dagger 14.9 12.3 84 28 11 11.3 99.40     LegendNANA
07:00 Legend Double Dagger 14.3 11.5 83 28 12 24.1 99.50     LegendNANA
08:00 Legend Double Dagger 14.1 11.6 85 2 4 24.1 99.62     Mainly Clear
09:00 Legend Double Dagger 14.3 9.4 72 29 18 24.1 99.66     LegendNANA
10:00 Legend Double Dagger 14.3 8.5 68 28 13 24.1 99.75     LegendNANA
11:00 Legend Double Dagger 15.8 6.9 55 28 17 24.1 99.78     Mainly Clear
12:00 Legend Double Dagger 16.0 3.9 44 28 26 24.1 99.84     LegendNANA
13:00 Legend Double Dagger 16.5 3.7 42 26 31 24.1 99.84     LegendNANA
14:00 Legend Double Dagger 16.7 2.4 38 27 31 24.1 99.90     Clear
15:00 Legend Double Dagger 16.9 2.2 37 27 27 24.1 99.96     LegendNANA
16:00 Legend Double Dagger 16.5 2.2 38 27 17 24.1 100.06     LegendNANA
17:00 Legend Double Dagger 14.7 2.3 43 30 26 24.1 100.20     Clear
18:00 Legend Double Dagger 12.6 1.9 48 29 14 24.1 100.36     LegendNANA
19:00 Legend Double Dagger 11.6 1.6 50 28 19 24.1 100.54     LegendNANA
20:00 Legend Double Dagger 10.7 1.0 51 30 10 24.1 100.63     Clear
21:00 Legend Double Dagger 9.7 1.4 56 29 5 24.1 100.72     LegendNANA
22:00 Legend Double Dagger 9.4 1.6 58 30 14 24.1 100.78     LegendNANA
23:00 Legend Double Dagger 9.2 2.1 61 28 14 24.1 100.87     Clear

Notes on Data Quality.

Legend

  • E = Estimated
  • M = Missing
  • NA = Not Available
  • ‡ = Partner data that is not subject to review by the National Climate Archives
Date modified: